Location: Chiroubles
(46.1812°N, 4.6660°E)
Time: 22:20:51
(UTC+00:00)

SR - Pass Details

Date: 26 November 2020
Orbit: 575 x 880 km, 66.7° (Epoch: 23 January)

Event Time Altitude Azimuth Distance (km) Brightness Sun altitude
Exits shadow 04:14:51 25° 186° (S) 1,627 ? -27.6°
Drops below altitude 10° 04:17:20 10° 173° (S) 2,460 ? -27.2°
Sets 04:19:56 0° 168° (SSE) 3,421 ? -26.7°
